Location: *
(43.0833°N, 13.0500°E)
Time: 05:01:53
(UTC+00:00)

NOSS 2-3 (D) - Pass Details

Date: 15 November 2019
Orbit: 597 x 1615 km, 63.4° (Epoch: 30 November)

Event Time Altitude Azimuth Distance (km) Brightness Sun altitude
Rises 18:11:21 0° 230° (SW) 2,838 7.7 -26.8°
Reaches altitude 10° 18:13:32 10° 235° (SW) 1,970 6.8 -27.2°
Maximum altitude 18:17:46 51° 312° (NW) 839 4.4 -28.0°
Enters shadow 18:17:54 51° 318° (NW) 843 4.3 -28.0°
